Torna al catalogo

STARLINK-31715

AttivoComunicazioniVLEO
NORAD 59384·PAYLOAD·🇺🇸 United States

Lanciato Apr 2, 2024 da Vandenberg Space Force Base

Loading…

Prossimi Passaggi (prossime 24 ore)

TLE

AggiornatoSource: CelesTrak SupGP

Epoca: Sep 15, 2026, 02:39 UTC

1 59384C 24062L   26258.11090278 -.00006417  00000+0 -18964-3 0  2582
2 59384  53.1561  92.9682 0001235  88.7525 245.4011 15.34388180    13

Traccia STARLINK-31715 in tempo reale con AllMySat

Download on the App Store